sat.trackr.live / text

‹ back to catalog

STARLINK-34740

NORAD 64941 · 2025-158K

PAYLOAD ACTIVE UNKNOWN

§ Identity

Operator
Country
US
Launch date
2025-07-27
Launch site
AFWTR
Launch vehicle
Mass (kg)
RCS (m²)

Purposes: comms

External: N2YO · Heavens-Above · Gunter

§ Orbital elements

Epoch: 2026-05-25T03:37:05.410848Z

Period
95.64 min
Inclination
97.4497°
Eccentricity
0.0002268
Mean motion
15.05655416 rev/d
Perigee alt
547.9 km
Apogee alt
551.1 km
Semi-major
6,927.6 km
B*
1.6604e-4
RAAN
9.1127°
Arg perigee
90.6892°
Mean anomaly
269.4595°
Rev number
4,680

§ Raw data

STARLINK-347401 64941U 25158K   26145.15075707  .00002338  00000+0  16604-3 0  99902 64941  97.4497   9.1127 0002268  90.6892 269.4595 15.05655416 46804

JSON: /api/v1/satellites/64941 · /tle

For live sub-satellite position, see the globe view (requires WebGL).

§ Visibility from observer

Set your observer location to see the next 7 days of passes ≥ 10°. The values pass through the URL so the page stays shareable.

No JS? Fill the form by hand. The geolocation button needs JavaScript.